WetterOnline ( https://www.wetteronline.de )

Wetter aktuell Bad Hönningen

Aktuelles Wetter: Andernach (75m)

6-stündlich | Neueste Meldungen
Ortszeit Temperatur Wetter
Do, 18.04. 20:00 10.2° C leicht bewölkt
Do, 18.04. 14:00 9.7° C bedeckt
Do, 18.04. 8:00 5.6° C bedeckt
Do, 18.04. 2:00 4.7° C leichter Regen
Mi, 17.04. 20:00 8.0° C wolkig
Mi, 17.04. 14:00 7.3° C Sprühregen
Mi, 17.04. 8:00 5.9° C bewölkt
Mi, 17.04. 2:00 6.8° C leichter Regen
Ortszeit Temperatur Wetter
Do, 18.04. 23:00 5.1° C wolkig
Do, 18.04. 22:40 5.4° C bedeckt
Do, 18.04. 22:30 6.2° C wolkig
Do, 18.04. 22:20 6.2° C wolkig
Do, 18.04. 22:10 6.4° C bedeckt
Do, 18.04. 22:00 6.9° C bedeckt
Do, 18.04. 21:50 6.9° C bedeckt
Do, 18.04. 21:30 7.3° C bewölkt
Do, 18.04. 21:00 8.5° C wolkig
Do, 18.04. 20:30 9.5° C wolkig
Do, 18.04. 20:00 10.2° C leicht bewölkt
Ortszeit Relative Feuchte Sichtweite
Do, 18.04. 20:00 54% 55 km
Do, 18.04. 14:00 64% 55 km
Do, 18.04. 8:00 86% 14 km
Do, 18.04. 2:00 87% 28 km
Mi, 17.04. 20:00 70% >70 km
Mi, 17.04. 14:00 83% 21 km
Mi, 17.04. 8:00 85% 18 km
Mi, 17.04. 2:00 95% 21 km
Ortszeit Relative Feuchte Sichtweite
Do, 18.04. 23:00 88% 45 km
Do, 18.04. 22:40 86% -
Do, 18.04. 22:30 81% 50 km
Do, 18.04. 22:20 81% -
Do, 18.04. 22:10 80% -
Do, 18.04. 22:00 75% 50 km
Do, 18.04. 21:50 75% -
Do, 18.04. 21:30 70% 65 km
Do, 18.04. 21:00 60% 60 km
Do, 18.04. 20:30 55% 60 km
Do, 18.04. 20:00 54% 55 km
Ortszeit Niederschlagsmenge Niederschlagsart
Do, 18.04. 20:00 0.1 l/m2 in 12 Std. Regen
Do, 18.04. 14:00 0.1 l/m2 in 6 Std. Sprühregen
Do, 18.04. 8:00 1 l/m2 in 12 Std. Regen
Do, 18.04. 2:00 0.1 l/m2 in 6 Std. Regen
Mi, 17.04. 20:00 1 l/m2 in 12 Std. Regen
Mi, 17.04. 14:00 1 l/m2 in 6 Std. Regen
Mi, 17.04. 8:00 5 l/m2 in 12 Std. Regen
Mi, 17.04. 2:00 5 l/m2 in 6 Std. Regen
Ortszeit Niederschlagsmenge Niederschlagsart
Do, 18.04. 23:00 0.0 l/m2 in 1 Std. -
Do, 18.04. 22:40 keine Meldung -
Do, 18.04. 22:30 0.0 l/m2 in 30 Min -
Do, 18.04. 22:20 keine Meldung -
Do, 18.04. 22:10 keine Meldung -
Do, 18.04. 22:00 0.0 l/m2 in 1 Std. -
Do, 18.04. 21:50 keine Meldung -
Do, 18.04. 21:30 0.0 l/m2 in 30 Min -
Do, 18.04. 21:00 0.0 l/m2 in 1 Std. -
Do, 18.04. 20:30 0.0 l/m2 in 30 Min -
Do, 18.04. 20:00 0.0 l/m2 in 1 Std. Regen
Ortszeit Stärke Spitze Richtung
km/h Bft. km/h Grad Sektor
Do, 18.04. 20:00 7 2 31 290° W
Do, 18.04. 14:00 19 3 30 310° NW
Do, 18.04. 8:00 7 2 22 310° NW
Do, 18.04. 2:00 11 2 18 310° NW
Mi, 17.04. 20:00 4 1 47 350° N
Mi, 17.04. 14:00 7 2 32 330° NW
Mi, 17.04. 8:00 9 2 22 300° NW
Mi, 17.04. 2:00 6 1 24 290° W
Ortszeit Stärke Spitze Richtung
km/h Bft. km/h Grad Sektor
Do, 18.04. 23:00 4 1 7 140° SO
Do, 18.04. 22:40 4 1 - 100° O
Do, 18.04. 22:30 4 1 7 140° SO
Do, 18.04. 22:20 4 1 - 140° SO
Do, 18.04. 22:10 4 1 - 150° SO
Do, 18.04. 22:00 2 1 9 20° N
Do, 18.04. 21:50 2 1 - 20° N
Do, 18.04. 21:30 6 1 9 280° W
Do, 18.04. 21:00 4 1 14 260° W
Do, 18.04. 20:30 4 1 14 280° W
Do, 18.04. 20:00 7 2 24 290° W
Ortszeit Untergrenze Bedeckung Gattung
total tief tief mittel hoch
Do, 18.04. 20:00 2100 m 4/8 2/8 - - -
Do, 18.04. 14:00 930 m 8/8 8/8 - - -
Do, 18.04. 8:00 510 m 8/8 8/8 - - -
Do, 18.04. 2:00 270 m 8/8 8/8 - - -
Mi, 17.04. 20:00 1050 m 8/8 2/8 - - -
Mi, 17.04. 14:00 690 m 8/8 8/8 - - -
Mi, 17.04. 8:00 390 m 7/8 7/8 - - -
Mi, 17.04. 2:00 660 m 7/8 7/8 - - -
Ortszeit Bedeckungsgrad in Achtel und Wolkenuntergrenze
Do, 18.04. 23:00 2(1800m) 8(4500m) 8(6600m)
Do, 18.04. 22:40 8
Do, 18.04. 22:30 3(1800m) 8(4500m)
Do, 18.04. 22:20 3(1800m) 8(4500m)
Do, 18.04. 22:10 8
Do, 18.04. 22:00 8(1800m) 8(4800m)
Do, 18.04. 21:50 8(1800m) 8(4800m)
Do, 18.04. 21:30 3(1380m) 5(2100m) 8(5100m)
Do, 18.04. 21:00 2(2100m) 5(5400m) 7(6000m)
Do, 18.04. 20:30 5(2100m) 7(7800m)
Do, 18.04. 20:00 2(2100m) 4(6600m)
Ortszeit Luftdruck NN (hPa) Tendenz (hPa in 3 Std.)
Do, 18.04. 20:00 1020 + 0,3
Do, 18.04. 14:00 1019 + 0,6
Do, 18.04. 8:00 1017 + 1,8
Do, 18.04. 2:00 1014 + 1,1
Mi, 17.04. 20:00 1011 + 0,5
Mi, 17.04. 14:00 1012 - 0,3
Mi, 17.04. 8:00 1012 + 1,3
Mi, 17.04. 2:00 1010 + 1,2
Ortszeit Luftdruck NN (hPa) Tendenz (hPa in 3 Std.)
Do, 18.04. 23:00 1020 - 0,1
Do, 18.04. 22:40 1020 keine Meldung
Do, 18.04. 22:30 1020 + 0,1
Do, 18.04. 22:20 1020 keine Meldung
Do, 18.04. 22:10 1020 keine Meldung
Do, 18.04. 22:00 1020 + 0,1
Do, 18.04. 21:50 1020 keine Meldung
Do, 18.04. 21:30 1020 + 0,3
Do, 18.04. 21:00 1020 + 0,6
Do, 18.04. 20:30 1020 + 0,5
Do, 18.04. 20:00 1020 + 0,3
Ortszeit Schneehöhe (cm)
Do, 18.04. 20:00 0
Do, 18.04. 14:00 0
Do, 18.04. 8:00 0
Do, 18.04. 2:00 0
Mi, 17.04. 20:00 0
Mi, 17.04. 14:00 0
Mi, 17.04. 8:00 0
Mi, 17.04. 2:00 0
Ortszeit Schneehöhe (cm)
Do, 18.04. 23:00 0
Do, 18.04. 22:40 -
Do, 18.04. 22:30 0
Do, 18.04. 22:20 0
Do, 18.04. 22:10 -
Do, 18.04. 22:00 0
Do, 18.04. 21:50 0
Do, 18.04. 21:30 0
Do, 18.04. 21:00 0
Do, 18.04. 20:30 0
Do, 18.04. 20:00 0
Link zu dieser Seite / Seite empfehlen

Das Wetter in ...